Regional Weather Roundup
Issued by NWS Sioux Falls, SD

Home | Current Version | Previous Version | Graphics & Text | Print | Product List | Glossary Off
Versions: 1 2 3 4 5 6 7 8 9 10 11 12 13 14 15 16 17 18 19 20 21 22 23 24 25 26 27 28 29 30 31 32 33 34 35 36 37 38 39 40 41 42 43 44 45 46 47 48 49 50

000
ASUS43 KFSD 271610
RWRFSD

WEATHER ROUNDUP FOR SE SOUTH DAKOTA/SW MINNESOTA/NW IOWA
NATIONAL WEATHER SERVICE SIOUX FALLS SD
1100 AM CDT MON MAR 27 2017

NOTE: "FAIR" INDICATES FEW OR NO CLOUDS BELOW 12,000 FEET WITH NO
SIGNIFICANT WEATHER AND OR OBSTRUCTIONS TO VISIBILITY.


SDZ038>040-050-052>070-271700-
SOUTHEAST SOUTH DAKOTA

CITY           SKY/WX    TMP DP  RH WIND       PRES   REMARKS
BROOKINGS      SUNNY     46  39  76 CALM      29.97S
CHAMBERLAIN    CLOUDY    44  44 100 CALM      29.97S
HURON          CLOUDY    48  40  73 S7        29.97F
MADISON        CLOUDY    45  45 100 SW3       29.98S
MITCHELL       CLOUDY    48  40  73 S5        29.99S
SIOUX FALLS    PTSUNNY   49  37  63 N8        29.99R
WINNER         FAIR      50  39  66 S7        29.95S
YANKTON        CLOUDY    48  39  71 E6        29.99R
$$

MNZ071-072-080-081-089-090-097-098-271700-
SOUTHWEST MINNESOTA

CITY           SKY/WX    TMP DP  RH WIND       PRES   REMARKS
FAIRMONT       CLOUDY    43  38  82 N9        29.98R
JACKSON        CLOUDY    43  37  81 N6        29.98S
LUVERNE        CLOUDY    45  36  70 NE7       29.99R
MARSHALL       CLOUDY    45  39  79 N3        30.00R
MONTEVIDEO     CLOUDY    54  43  66 CALM      30.01R
PIPESTONE      CLOUDY    45  36  70 CALM      29.97R
REDWOOD FALLS  PTSUNNY   47  37  68 CALM      29.98S
TRACY          CLOUDY    46  40  80 N3        29.99R
WINDOM         MOSUNNY   45  39  81 N3        29.98S
WORTHINGTON    CLOUDY    43  38  82 N6        29.99R
$$

IAZ001>003-012>014-020>022-031-032-NEZ013-014-SDZ071-271700-
NORTHWEST IOWA

CITY           SKY/WX    TMP DP  RH WIND       PRES   REMARKS
CHEROKEE       CLOUDY    46  39  78 NE7       29.98S
DENISON          N/A     45  39  81 NE6       29.99
ESTHERVILLE    CLOUDY    44  38  79 N7        29.97R
LE MARS        PTSUNNY   48  39  71 NE7       29.99S
ORANGE CITY    MOSUNNY   46  39  76 N3        29.98S
SHELDON        CLOUDY    45  30  57 CALM      29.97S
SIOUX CITY     CLOUDY    48  40  73 NE3       29.98S
SPENCER        CLOUDY    44  39  82 N7        29.98R
STORM LAKE       N/A     45  39  81 NE9       29.97R
$$

ABBREVIATIONS USED IN REMARKS
   TC - TEMPERATURE IN CELSIUS
  WCI - WIND CHILL INDEX
   HX - HEAT INDEX
  VSB - VISIBILITY




USA.gov is the U.S. government's official web portal to all federal, state and local government web resources and services.